Location: Góry Miechowskie
(50.3599°N, 20.1803°E)
Time: 12:23:35
(UTC+00:00)

Cosmos 1606 - Pass Details

Date: 15 June 2024
Orbit: 456 x 469 km, 82.5° (Epoch: 15 July)

Event Time Altitude Azimuth Distance (km) Brightness Sun altitude
Rises 00:56:13 0° 339° (NNW) 2,527 6.8 -10.4°
Reaches altitude 10° 00:58:33 10° 326° (NW) 1,647 5.6 -10.2°
Maximum altitude 01:01:32 25° 270° (W) 999 3.9 -9.9°
Enters shadow 01:03:50 14° 221° (SW) 1,417 4.3 -9.7°
